Weather in Belaga

Malaysia     3°01′15″N   113°48′46″E
temp.,
°C
wind,
m/s
gust,
m/s
humid.,
%
clouds,
%
prec.,
mm/h
press.,
hPa
HPBL,
m
20 june, sun
sun2023:00+23e0099100 0.4 101215
02:00+22s11100100 9.8 101143
05:00+22n12100100 21.1 1011104
08:00+21e11100100 72.8 101384
11:00+23se1199100 1.9 1013100
14:00+24se1295100 2.1 1011297
17:00+23se1297100 0.0 101051
20:00+22se1298100 0.3 101153
21 june, mon
mon2123:00+21se1197100 0.0 101340
02:00+21se1197100 0.0 101130
05:00+21se1296100 0.0 101143
08:00+22se1291100 0.0 101272
11:00+27e1265100 0.0 1011418
14:00+29nne1261100 0.0 1009621
17:00+27se1176100 0.0 100828
20:00+24n0086100 0.0 101111
22 june, tue
tue2223:00+22ese0093100 0.0 101212
02:00+22sse1195100 0.0 101114
05:00+22ese1193100 0.1 101137
08:00+24se1183100 0.1 1012145
11:00+29se1163100 0.0 1012641
14:00+32w1248100 0.0 10091628
17:00+31wnw135976 0.0 1008452
20:00+25e1181100 0.1 101111
23 june, wed
wed2323:00+23se118998 0.1 101212
02:00+22ese1193100 0.2 101114
05:00+21ese1194100 0.0 101122
08:00+24ese118176 0.0 1013179
11:00+32nw115499 0.0 10111138
14:00+34nw224462 0.0 10082387
17:00+28nw1272100 0.1 100886
20:00+24nnw1199100 2.5 101112
24 june, thu
thu2423:00+23e1199100 1.8 101216
02:00+22se1199100 2.4 101120
05:00+22ese12100100 2.1 101053
08:00+23se1198100 2.1 101291
11:00+30nnw0060100 0.0 10111017
14:00+31w215699 0.3 10081646
17:00+26nw119347 1.3 100824
20:00+23ne009861 2.8 101011